Regional Weather Roundup
Issued by NWS

Home | Current Version | Previous Version | Text Only | Print | Product List | Glossary On
Versions: 1 2 3 4 5 6 7 8 9 10 11 12 13 14 15 16 17 18 19 20 21 22 23 24 25 26 27 28 29 30 31 32 33 34 35 36 37 38 39 40 41 42 43 44 45 46 47 48 49 50
000
ASUS43 KTOP 010908
RWRKS

WEATHER ROUNDUP FOR KANSAS
NATIONAL WEATHER SERVICE GOODLAND KS
300 AM CST SUN MAR 01 2015

NOTE:  "FAIR" INDICATES FEW OR NO CLOUDS BELOW 12,000 FEET WITH NO
SIGNIFICANT WEATHER AND/OR OBSTRUCTIONS TO VISIBILITY.

KSZ001>006-013>018-027>032-041>047-011000-
NORTHWEST KANSAS

CITY           SKY/WX    TMP DP  RH WIND       PRES   REMARKS
GOODLAND       CLOUDY    19  17  92 S7        30.14S
HAYS           MOCLDY    12   3  67 CALM      30.26S
HILL CITY      CLOUDY    20  15  81 CALM      30.26R
RUSSELL        PTCLDY    16  15  96 SE6       30.26F
$$

KSZ061>065-074>080-084>089-011000-
SOUTHWEST KANSAS

CITY           SKY/WX    TMP DP  RH WIND       PRES   REMARKS
DODGE CITY     CLOUDY    19  16  88 SE6       30.22S FOG
ELKHART          N/A     21  18  88 SE7         N/A
GARDEN CITY    CLOUDY    19  17  92 SE8       30.19S FOG
GREAT BEND     CLOUDY    19  12  73 S6        30.28F
LIBERAL        CLOUDY    23  18  80 S7        30.19S
PRATT          CLOUDY    21  19  93 CALM      30.28F FOG
$$

KSZ066>073-081>083-090>101-011000-
SOUTHEAST KANSAS

CITY           SKY/WX    TMP DP  RH WIND       PRES   REMARKS
CHANUTE        CLOUDY    23  22  96 N3        30.35S FOG
COFFEYVILLE    CLOUDY    25  24  96 N5        30.36S FOG
HUTCHINSON     CLOUDY    22  17  81 CALM      30.31S
MEDICINE LODGE   N/A     21  20  96 CALM      30.29F
NEWTON         CLOUDY    19  16  86 CALM      30.32F VSB 1
PARSONS        CLOUDY    25  23  92 N3        30.36S FOG
WICHITA INTL   FOG       23  20  88 CALM      30.32F VSB 1/4
WICHITA JABRA  CLOUDY    21  20  96 CALM      30.32F FOG
WICHITA MCCONL FOG       21  21 100 CALM      30.32F VSB 3/4
WINFIELD       CLOUDY    23  23 100 N5        30.34F FOG
$$

KSZ007>012-019>026-033>040-048>060-102>105-011000-
NORTHEAST KANSAS

CITY           SKY/WX    TMP DP  RH WIND       PRES   REMARKS
CONCORDIA      CLOUDY    20  17  88 CALM      30.30F
EMPORIA        CLOUDY    21  19  92 CALM      30.33F
LAWRENCE       CLOUDY    22  19  89 NW3       30.37S
MANHATTAN      MOCLDY    20  18  92 CALM      30.35F
MARYSVILLE     CLOUDY    21  19  93 CALM      30.33F
OLATHE IND     CLOUDY    21  19  92 CALM      30.35S
OLATHE EXE     CLOUDY    22  20  92 CALM      30.33S
SALINA         MOCLDY    20  16  84 CALM      30.33F
TOPEKA BILLARD CLOUDY    23  19  85 CALM      30.36F
TOPEKA FORBES  CLOUDY    23  19  85 CALM      30.34F
$$


USA.gov is the U.S. government's official web portal to all federal, state and local government web resources and services.